Flag for U.S.A. Weather past 2 weeks in Temple, Texas, U.S.A.

Now
48 °F

Fog.


Feels Like: 47 °F
Forecast: 46 / 58 °F
Wind: 3 mph from Southeast

Location: Fort Hood AAF Airport

Current Time: Dec 21, 2014 at 2:49:32 AM

Latest Report: Dec 21, 2014 at 12:58 AM


Visibility: 6 mi

Pressure: 30.14 "Hg

Humidity: 96%

Dew point: 47 °F

Location of TempleLocation

Historic Weather in Temple — Graph

°F

Temple temperature yesterday

Maximum temperature yesterday: 51 °F (at 3:58 PM)
Minimum temperature yesterday: 46 °F (at 12:03 AM)
Average temperature yesterday: 48 °F

Past Weeks' High & Low Weather Summary

 TemperatureHumidityPressure
High74 °F (Dec 13, 2:56 PM)100% (Dec 17, 10:58 PM)30.51 "Hg (Dec 17, 10:58 PM)
Low40 °F (Dec 16, 7:58 AM)26% (Dec 15, 2:55 PM)29.90 "Hg (Dec 14, 6:56 PM)
Average55 °F77%30.23 "Hg
* Reported Dec 6 10:56 AM — Dec 21 12:58 AM, Temple, Weather by CustomWeather, © 2014

Note: Actual official high and low records may vary slightly from our data, if they occured in-between our weather recording intervals... More about our weather records

Advertising

Temple weather history for previous 24 hours

 ConditionsComfort  
Time TempWeatherWind HumidityBarometerVisibility
12:58 AM
Dec 21
48 °FFog.3 mph96%30.14 "Hg6 mi
11:58 PM
Dec 20
48 °FFog.6 mph95%30.15 "Hg6 mi
10:58 PM48 °FLow clouds.3 mph94%30.16 "Hg7 mi
9:58 PM48 °FFog.6 mph93%30.17 "Hg6 mi
8:58 PM48 °FOvercast.5 mph91%30.17 "Hg7 mi
7:58 PM49 °FOvercast.6 mph89%30.17 "Hg8 mi
6:58 PM49 °FOvercast.7 mph86%30.17 "Hg10 mi
5:58 PM50 °FOvercast.6 mph84%30.15 "Hg10 mi
3:58 PM51 °FOvercast.6 mph76%30.14 "Hg10 mi
2:58 PM51 °FMostly cloudy.6 mph75%30.15 "Hg10 mi
1:58 PM51 °FOvercast.5 mph76%30.17 "Hg10 mi
12:58 PM50 °FMostly cloudy.6 mph78%30.20 "Hg10 mi
11:58 AM49 °FMostly cloudy.7 mph80%30.23 "Hg10 mi
10:58 AM48 °FMostly cloudy.3 mph84%30.25 "Hg10 mi
9:58 AM47 °FOvercast.7 mph88%30.24 "Hg10 mi
8:58 AM47 °FOvercast.8 mph91%30.22 "Hg9 mi
7:58 AM47 °FOvercast.6 mph91%30.21 "Hg9 mi
6:58 AM47 °FOvercast.7 mph91%30.20 "Hg10 mi
5:58 AM46 °FOvercast.6 mph93%30.19 "Hg10 mi
4:58 AM46 °FOvercast.8 mph92%30.18 "Hg10 mi
3:58 AM47 °FOvercast.6 mph91%30.19 "Hg10 mi
2:58 AM47 °FOvercast.5 mph91%30.19 "Hg10 mi
Weather by CustomWeather, © 2014

See weather overviewHow to use our weather pages